This is the latest recevied weather packets stored in our database for station/object KQ4OSL. If no packets are shown the sender has not sent any weather packets the latest 10 day(s).
| Time | Temp. | Humidity | Pressure | Rain* | Wind** | Luminosity | Snow |
|---|---|---|---|---|---|---|---|
| 1777908008 | 19.44° C | 54% | 1019.5 hPa | 0 mm | - | 655 W/m² | - |
| 1777907703 | 18.89° C | 54% | 1019.5 hPa | 0 mm | - | 641 W/m² | - |
| 1777907398 | 19.44° C | 59% | 1019.6 hPa | 0 mm | - | 631 W/m² | - |
| 1777907095 | 18.89° C | 55% | 1019.6 hPa | 0 mm | - | 631 W/m² | - |
| 1777906793 | 18.89° C | 55% | 1019.7 hPa | 0 mm | - | 624 W/m² | - |
| 1777906490 | 18.89° C | 56% | 1019.6 hPa | 0 mm | - | 618 W/m² | - |
| 1777906186 | 18.33° C | 58% | 1019.6 hPa | 0 mm | - | 578 W/m² | - |
| 1777905883 | 18.33° C | 56% | 1019.7 hPa | 0 mm | - | 564 W/m² | - |
| 1777905579 | 18.33° C | 57% | 1019.9 hPa | 0 mm | - | 582 W/m² | - |
| 1777905277 | 17.78° C | 58% | 1019.9 hPa | 0 mm | - | 564 W/m² | - |
| 1777904974 | 17.78° C | 58% | 1019.9 hPa | 0 mm | - | 548 W/m² | - |
| 1777904671 | 17.78° C | 59% | 1020 hPa | 0 mm | - | 530 W/m² | - |
| 1777904368 | 16.67° C | 63% | 1020 hPa | 0 mm | - | 514 W/m² | - |
| 1777904065 | 16.67° C | 62% | 1020 hPa | 0 mm | - | 496 W/m² | - |
| 1777903761 | 16.11° C | 62% | 1020.2 hPa | 0 mm | - | 501 W/m² | - |
| 1777903458 | 16.11° C | 62% | 1020.1 hPa | 0 mm | - | 483 W/m² | - |
| 1777903154 | 15.56° C | 62% | 1020.1 hPa | 0 mm | - | 468 W/m² | - |
| 1777902851 | 15.56° C | 64% | 1020.2 hPa | 0 mm | - | 450 W/m² | - |
| 1777902549 | 15.56° C | 62% | 1020.3 hPa | 0 mm | - | 432 W/m² | - |
| 1777902245 | 15° C | 63% | 1020.2 hPa | 0 mm | - | 419 W/m² | - |
| 1777901943 | 15° C | 65% | 1020.3 hPa | 0 mm | - | 407 W/m² | - |
| 1777901640 | 14.44° C | 65% | 1020.1 hPa | 0 mm | - | 389 W/m² | - |
| 1777901337 | 14.44° C | 66% | 1020.1 hPa | 0 mm | - | 368 W/m² | - |
| 1777901035 | 14.44° C | 69% | 1020.1 hPa | 0 mm | - | 356 W/m² | - |
| 1777900732 | 14.44° C | 70% | 1020 hPa | 0 mm | - | 271 W/m² | - |
* Rain latest hour (hover to see other rain measurements)
** Current wind speed in m/s (hover to see current wind gust speed)